TimeEST,TemperatureF,Dew PointF,Humidity,Sea Level PressureIn,VisibilityMPH,Wind Direction,Wind SpeedMPH,Gust SpeedMPH,PrecipitationIn,Events,Conditions,WindDirDegrees,DateUTC
12:15 AM,12.2,10.4,92,30.23,10.0,NE,6.9,-,N/A,,Clear,50,2013-02-22 05:15:00
12:35 AM,14.0,10.4,86,30.22,10.0,ENE,10.4,-,N/A,,Clear,60,2013-02-22 05:35:00
12:55 AM,15.8,10.4,79,30.22,10.0,ENE,8.1,-,N/A,,Clear,70,2013-02-22 05:55:00
1:15 AM,15.8,10.4,79,30.24,10.0,East,6.9,-,N/A,,Clear,80,2013-02-22 06:15:00
1:55 AM,15.8,10.4,79,30.22,10.0,ENE,10.4,-,N/A,,Clear,60,2013-02-22 06:55:00
2:15 AM,15.8,10.4,79,30.21,10.0,ENE,9.2,-,N/A,,Clear,70,2013-02-22 07:15:00
2:35 AM,15.8,10.4,79,30.22,10.0,East,4.6,-,N/A,,Clear,100,2013-02-22 07:35:00
2:55 AM,15.8,10.4,79,30.22,10.0,East,5.8,-,N/A,,Clear,100,2013-02-22 07:55:00
3:15 AM,15.8,10.4,79,30.20,10.0,East,5.8,-,N/A,,Clear,80,2013-02-22 08:15:00
3:35 AM,15.8,12.2,86,30.18,10.0,East,6.9,-,N/A,,Clear,100,2013-02-22 08:35:00
3:55 AM,17.6,12.2,79,30.18,10.0,East,11.5,16.1,N/A,,Clear,100,2013-02-22 08:55:00
4:15 AM,17.6,12.2,79,30.19,10.0,East,10.4,-,N/A,,Clear,100,2013-02-22 09:15:00
4:35 AM,17.6,12.2,79,30.19,10.0,East,9.2,-,N/A,,Clear,100,2013-02-22 09:35:00
4:55 AM,19.4,12.2,74,30.19,10.0,East,11.5,-,N/A,,Clear,90,2013-02-22 09:55:00
5:15 AM,19.4,12.2,74,30.17,10.0,East,10.4,18.4,N/A,,Partly Cloudy,90,2013-02-22 10:15:00
5:35 AM,19.4,14.0,80,30.16,10.0,East,13.8,20.7,N/A,,Scattered Clouds,100,2013-02-22 10:35:00
5:55 AM,19.4,14.0,80,30.15,10.0,East,12.7,21.9,N/A,,Mostly Cloudy,100,2013-02-22 10:55:00
6:15 AM,19.4,14.0,80,30.13,10.0,East,16.1,20.7,N/A,,Mostly Cloudy,100,2013-02-22 11:15:00
6:35 AM,21.2,14.0,74,30.13,10.0,ESE,16.1,25.3,N/A,,Partly Cloudy,110,2013-02-22 11:35:00
6:55 AM,21.2,14.0,74,30.12,10.0,East,16.1,24.2,N/A,,Mostly Cloudy,100,2013-02-22 11:55:00
7:15 AM,21.2,14.0,74,30.12,10.0,ESE,18.4,23.0,N/A,,Overcast,110,2013-02-22 12:15:00
7:35 AM,21.2,15.8,80,30.10,10.0,ESE,17.3,24.2,N/A,,Overcast,110,2013-02-22 12:35:00
7:55 AM,23.0,15.8,74,30.10,10.0,ESE,18.4,27.6,N/A,,Overcast,110,2013-02-22 12:55:00
8:15 AM,24.8,15.8,69,30.09,10.0,ESE,16.1,24.2,N/A,,Overcast,110,2013-02-22 13:15:00
8:35 AM,24.8,15.8,69,30.09,10.0,East,15.0,26.5,N/A,,Overcast,100,2013-02-22 13:35:00
8:55 AM,24.8,15.8,69,30.08,10.0,East,15.0,25.3,N/A,,Overcast,100,2013-02-22 13:55:00
9:15 AM,24.8,15.8,69,30.07,10.0,ESE,18.4,26.5,N/A,,Overcast,110,2013-02-22 14:15:00
9:35 AM,26.6,15.8,64,30.05,10.0,ESE,15.0,23.0,N/A,,Overcast,110,2013-02-22 14:35:00
9:55 AM,26.6,15.8,64,30.04,10.0,ESE,17.3,24.2,N/A,,Overcast,120,2013-02-22 14:55:00
10:15 AM,26.6,15.8,64,30.04,10.0,ESE,19.6,29.9,N/A,,Overcast,120,2013-02-22 15:15:00
10:35 AM,26.6,17.6,69,30.04,10.0,ESE,19.6,27.6,N/A,,Overcast,110,2013-02-22 15:35:00
10:55 AM,26.6,19.4,74,30.02,10.0,ESE,17.3,32.2,N/A,,Overcast,110,2013-02-22 15:55:00
11:15 AM,26.6,19.4,74,30.02,10.0,ESE,21.9,28.8,N/A,,Overcast,120,2013-02-22 16:15:00
11:35 AM,26.6,21.2,80,30.03,6.0,ESE,16.1,24.2,N/A,,Overcast,110,2013-02-22 16:35:00
11:55 AM,26.6,21.2,80,30.03,10.0,ESE,16.1,19.6,N/A,,Overcast,110,2013-02-22 16:55:00
12:15 PM,26.6,23.0,86,30.02,9.0,ESE,15.0,21.9,N/A,,Overcast,120,2013-02-22 17:15:00
12:35 PM,26.6,23.0,86,30.01,5.0,ESE,16.1,20.7,N/A,,Overcast,120,2013-02-22 17:35:00
1:15 PM,28.4,24.8,86,30.00,3.0,ESE,15.0,-,N/A,,Overcast,120,2013-02-22 18:15:00
1:35 PM,28.4,24.8,86,29.99,6.0,ESE,16.1,20.7,N/A,,Overcast,120,2013-02-22 18:35:00
1:55 PM,28.4,26.6,93,29.99,9.0,ESE,13.8,23.0,N/A,,Overcast,120,2013-02-22 18:55:00
2:15 PM,28.4,26.6,93,29.98,9.0,ESE,16.1,19.6,N/A,,Overcast,120,2013-02-22 19:15:00
2:35 PM,28.4,26.6,93,29.97,9.0,SE,16.1,23.0,N/A,,Overcast,130,2013-02-22 19:35:00
2:55 PM,28.4,26.6,93,29.97,10.0,SE,15.0,18.4,N/A,,Overcast,130,2013-02-22 19:55:00
3:15 PM,28.4,28.4,100,29.97,9.0,ESE,16.1,20.7,N/A,,Overcast,120,2013-02-22 20:15:00
3:35 PM,30.2,28.4,93,29.97,10.0,ESE,12.7,-,N/A,,Overcast,120,2013-02-22 20:35:00
3:55 PM,30.2,28.4,93,29.97,10.0,SE,13.8,-,N/A,,Overcast,130,2013-02-22 20:55:00
4:15 PM,30.2,28.4,93,29.97,10.0,ESE,13.8,17.3,N/A,,Overcast,120,2013-02-22 21:15:00
4:35 PM,30.2,28.4,93,29.97,10.0,SE,16.1,20.7,N/A,,Overcast,130,2013-02-22 21:35:00
4:55 PM,30.2,28.4,93,29.97,10.0,SE,11.5,-,N/A,,Overcast,130,2013-02-22 21:55:00
5:15 PM,30.2,28.4,93,29.98,9.0,SE,6.9,-,N/A,,Overcast,130,2013-02-22 22:15:00
5:35 PM,30.2,28.4,93,29.98,10.0,SE,9.2,-,N/A,,Overcast,130,2013-02-22 22:35:00
5:55 PM,30.2,28.4,93,29.98,9.0,ESE,11.5,16.1,N/A,,Overcast,120,2013-02-22 22:55:00
6:15 PM,30.2,28.4,93,29.98,10.0,ESE,9.2,-,N/A,,Overcast,120,2013-02-22 23:15:00
6:35 PM,30.2,28.4,93,29.98,9.0,ESE,10.4,-,N/A,,Overcast,120,2013-02-22 23:35:00
6:55 PM,30.2,28.4,93,29.98,10.0,ESE,11.5,-,N/A,,Overcast,120,2013-02-22 23:55:00
7:15 PM,30.2,28.4,93,29.99,6.0,SE,5.8,-,N/A,,Overcast,140,2013-02-23 00:15:00
7:35 PM,30.2,28.4,93,29.99,10.0,South,5.8,-,N/A,,Overcast,170,2013-02-23 00:35:00
7:55 PM,30.2,28.4,93,29.99,10.0,SE,5.8,-,N/A,,Overcast,140,2013-02-23 00:55:00
8:15 PM,30.2,28.4,93,29.99,8.0,SE,6.9,-,N/A,,Overcast,140,2013-02-23 01:15:00
8:35 PM,30.2,28.4,93,29.99,4.0,SE,6.9,-,N/A,,Overcast,130,2013-02-23 01:35:00
8:55 PM,30.2,28.4,93,30.00,6.0,SE,8.1,-,N/A,,Overcast,130,2013-02-23 01:55:00
9:15 PM,30.2,28.4,93,29.99,5.0,ESE,9.2,-,N/A,,Overcast,120,2013-02-23 02:15:00
9:35 PM,30.2,28.4,93,30.00,5.0,SE,10.4,-,N/A,,Overcast,130,2013-02-23 02:35:00
9:55 PM,30.2,28.4,93,29.99,5.0,ESE,10.4,-,N/A,,Overcast,110,2013-02-23 02:55:00
10:15 PM,30.2,28.4,93,29.98,6.0,ESE,11.5,-,N/A,,Overcast,120,2013-02-23 03:15:00
10:35 PM,30.2,28.4,93,29.98,5.0,ESE,10.4,-,N/A,,Overcast,120,2013-02-23 03:35:00
10:55 PM,30.2,28.4,93,29.98,5.0,ESE,8.1,-,N/A,,Overcast,110,2013-02-23 03:55:00
11:15 PM,30.2,28.4,93,29.98,5.0,SE,11.5,-,N/A,,Overcast,130,2013-02-23 04:15:00
11:35 PM,30.2,28.4,93,29.97,5.0,ESE,9.2,-,N/A,,Overcast,120,2013-02-23 04:35:00
11:55 PM,30.2,28.4,93,29.97,4.0,SE,9.2,-,N/A,,Overcast,130,2013-02-23 04:55:00